sat.trackr.live / text

‹ back to catalog

STARLINK-31506

NORAD 59259 · 2024-050F

PAYLOAD ACTIVE UNKNOWN

§ Identity

Operator
Country
US
Launch date
2024-03-19
Launch site
AFWTR
Launch vehicle
Mass (kg)
RCS (m²)

Purposes: comms

External: N2YO · Heavens-Above · Gunter

§ Orbital elements

Epoch: 2026-05-25T03:23:45.168864Z

Period
94.11 min
Inclination
53.1598°
Eccentricity
0.0001039
Mean motion
15.30196832 rev/d
Perigee alt
474.5 km
Apogee alt
475.9 km
Semi-major
6,853.4 km
B*
2.3695e-5
RAAN
185.8881°
Arg perigee
86.3540°
Mean anomaly
273.7579°
Rev number
12,225

§ Raw data

STARLINK-315061 59259U 24050F   26145.14149501  .00000343  00000+0  23695-4 0  99922 59259  53.1598 185.8881 0001039  86.3540 273.7579 15.30196832122251

JSON: /api/v1/satellites/59259 · /tle

For live sub-satellite position, see the globe view (requires WebGL).

§ Visibility from observer

Set your observer location to see the next 7 days of passes ≥ 10°. The values pass through the URL so the page stays shareable.

No JS? Fill the form by hand. The geolocation button needs JavaScript.